Time,TemperatureF,DewpointF,PressureIn,WindDirection,WindDirectionDegrees,WindSpeedMPH,WindSpeedGustMPH,Humidity,HourlyPrecipIn,Conditions,Clouds,dailyrainin,SoftwareType,DateUTC
2013-04-15 00:03:00,50.0,39.0,30.09,SSW,207,3.0,4.0,67,0.00,,,0.00,,2013-04-15 04:03:00,
2013-04-15 00:13:00,50.0,39.0,30.09,SSW,207,3.0,4.0,67,0.00,,,0.00,,2013-04-15 04:13:00,
2013-04-15 00:23:00,49.0,39.0,30.09,SSW,204,5.0,7.0,69,0.00,,,0.00,,2013-04-15 04:23:00,
2013-04-15 00:33:00,50.0,38.0,30.10,SW,229,6.0,7.0,64,0.00,,,0.00,,2013-04-15 04:33:00,
2013-04-15 00:43:00,50.0,38.0,30.10,SW,229,6.0,7.0,64,0.00,,,0.00,,2013-04-15 04:43:00,
2013-04-15 00:52:00,50.0,37.0,30.10,SW,216,5.0,7.0,60,0.00,,,0.00,,2013-04-15 04:52:00,
2013-04-15 01:03:00,50.0,36.0,30.10,SW,228,5.0,7.0,59,0.00,,,0.00,,2013-04-15 05:03:00,
2013-04-15 01:13:00,50.0,36.0,30.10,SW,228,5.0,7.0,59,0.00,,,0.00,,2013-04-15 05:13:00,
2013-04-15 01:23:00,51.0,36.0,30.11,SW,222,3.0,6.0,57,0.00,,,0.00,,2013-04-15 05:23:00,
2013-04-15 01:33:00,51.0,36.0,30.11,SW,225,4.0,5.0,56,0.00,,,0.00,,2013-04-15 05:33:00,
2013-04-15 01:42:00,51.0,36.0,30.11,SW,225,4.0,5.0,56,0.00,,,0.00,,2013-04-15 05:42:00,
2013-04-15 01:52:00,51.0,37.0,30.11,SW,232,3.0,6.0,58,0.00,,,0.00,,2013-04-15 05:52:00,
2013-04-15 02:02:00,52.0,36.0,30.12,SW,228,4.0,10.0,55,0.00,,,0.00,,2013-04-15 06:02:00,
2013-04-15 02:12:00,52.0,36.0,30.12,SW,228,4.0,10.0,55,0.00,,,0.00,,2013-04-15 06:12:00,
2013-04-15 02:23:00,51.0,36.0,30.14,SW,224,2.0,6.0,56,0.00,,,0.00,,2013-04-15 06:23:00,
2013-04-15 02:33:00,51.0,37.0,30.14,WSW,254,2.0,5.0,58,0.00,,,0.00,,2013-04-15 06:33:00,
2013-04-15 02:37:00,50.0,36.0,30.14,WNW,283,3.0,8.0,58,0.00,,,0.00,,2013-04-15 06:37:00,
2013-04-15 02:42:00,51.0,37.0,30.14,WSW,254,2.0,5.0,58,0.00,,,0.00,,2013-04-15 06:42:00,
2013-04-15 02:52:00,50.0,36.0,30.14,West,262,5.0,9.0,58,0.00,,,0.00,,2013-04-15 06:52:00,
2013-04-15 03:03:00,50.0,36.0,30.14,WNW,283,3.0,8.0,58,0.00,,,0.00,,2013-04-15 07:03:00,
2013-04-15 03:42:00,50.0,35.0,30.15,West,271,4.0,7.0,57,0.00,,,0.00,,2013-04-15 07:42:00,
2013-04-15 03:43:00,50.0,35.0,30.15,West,280,4.0,14.0,57,0.00,,,0.00,,2013-04-15 07:43:00,
2013-04-15 03:53:00,50.0,35.0,30.15,West,269,8.0,12.0,56,0.00,,,0.00,,2013-04-15 07:53:00,
2013-04-15 04:03:00,49.0,34.0,30.16,West,267,9.0,13.0,56,0.00,,,0.00,,2013-04-15 08:03:00,
2013-04-15 04:14:00,49.0,34.0,30.16,West,267,9.0,13.0,56,0.00,,,0.00,,2013-04-15 08:14:00,
2013-04-15 04:22:00,49.0,34.0,30.16,West,262,7.0,11.0,55,0.00,,,0.00,,2013-04-15 08:22:00,
2013-04-15 04:34:00,49.0,33.0,30.16,West,263,9.0,13.0,54,0.00,,,0.00,,2013-04-15 08:34:00,
2013-04-15 04:43:00,49.0,33.0,30.16,West,263,9.0,13.0,54,0.00,,,0.00,,2013-04-15 08:43:00,
2013-04-15 04:52:00,49.0,33.0,30.16,West,262,8.0,13.0,53,0.00,,,0.00,,2013-04-15 08:52:00,
2013-04-15 05:03:00,49.0,32.0,30.16,West,276,7.0,13.0,52,0.00,,,0.00,,2013-04-15 09:03:00,
2013-04-15 05:13:00,49.0,32.0,30.16,West,276,7.0,13.0,52,0.00,,,0.00,,2013-04-15 09:13:00,
2013-04-15 05:23:00,49.0,32.0,30.17,WNW,283,7.0,15.0,52,0.00,,,0.00,,2013-04-15 09:23:00,
2013-04-15 05:33:00,49.0,32.0,30.18,WNW,283,8.0,14.0,52,0.00,,,0.00,,2013-04-15 09:33:00,
2013-04-15 05:43:00,49.0,32.0,30.18,WNW,283,8.0,14.0,52,0.00,,,0.00,,2013-04-15 09:43:00,
2013-04-15 05:53:00,48.0,32.0,30.18,West,270,9.0,16.0,53,0.00,,,0.00,,2013-04-15 09:53:00,
2013-04-15 06:03:00,48.0,32.0,30.19,WNW,291,4.0,13.0,54,0.00,,,0.00,,2013-04-15 10:03:00,
2013-04-15 06:13:00,48.0,32.0,30.19,WNW,291,4.0,13.0,54,0.00,,,0.00,,2013-04-15 10:13:00,
2013-04-15 06:23:00,48.0,33.0,30.19,WNW,283,4.0,11.0,55,0.00,,,0.00,,2013-04-15 10:23:00,
2013-04-15 06:33:00,48.0,33.0,30.19,West,264,8.0,11.0,55,0.00,,,0.00,,2013-04-15 10:33:00,
2013-04-15 06:42:00,48.0,33.0,30.19,West,264,8.0,11.0,55,0.00,,,0.00,,2013-04-15 10:42:00,
2013-04-15 06:52:00,48.0,33.0,30.19,West,281,6.0,10.0,55,0.00,,,0.00,,2013-04-15 10:52:00,
2013-04-15 07:03:00,48.0,33.0,30.20,West,281,6.0,9.0,56,0.00,,,0.00,,2013-04-15 11:03:00,
2013-04-15 07:13:00,48.0,33.0,30.20,West,281,6.0,9.0,56,0.00,,,0.00,,2013-04-15 11:13:00,
2013-04-15 07:23:00,48.0,34.0,30.21,WSW,250,4.0,10.0,57,0.00,,,0.00,,2013-04-15 11:23:00,
2013-04-15 07:33:00,48.0,34.0,30.22,WSW,254,6.0,11.0,57,0.00,,,0.00,,2013-04-15 11:33:00,
2013-04-15 07:43:00,48.0,34.0,30.22,WSW,254,6.0,11.0,57,0.00,,,0.00,,2013-04-15 11:43:00,
2013-04-15 07:53:00,48.0,34.0,30.23,WNW,293,4.0,7.0,57,0.00,,,0.00,,2013-04-15 11:53:00,
2013-04-15 08:05:00,48.0,34.0,30.23,WSW,238,6.0,11.0,57,0.00,,,0.00,,2013-04-15 12:05:00,
2013-04-15 08:14:00,48.0,34.0,30.23,WSW,238,6.0,11.0,57,0.00,,,0.00,,2013-04-15 12:14:00,
2013-04-15 08:23:00,48.0,34.0,30.24,West,265,5.0,10.0,58,0.00,,,0.00,,2013-04-15 12:23:00,
2013-04-15 08:34:00,48.0,34.0,30.25,WSW,254,2.0,9.0,59,0.00,,,0.00,,2013-04-15 12:34:00,
2013-04-15 08:43:00,48.0,34.0,30.25,WSW,254,2.0,9.0,59,0.00,,,0.00,,2013-04-15 12:43:00,
2013-04-15 08:53:00,47.0,35.0,30.25,West,277,5.0,15.0,62,0.00,,,0.00,,2013-04-15 12:53:00,
2013-04-15 09:05:00,47.0,35.0,30.25,WNW,291,5.0,10.0,64,0.00,,,0.00,,2013-04-15 13:05:00,
2013-04-15 09:13:00,47.0,35.0,30.25,WNW,291,5.0,10.0,64,0.00,,,0.00,,2013-04-15 13:13:00,
2013-04-15 09:23:00,47.0,36.0,30.25,West,266,3.0,9.0,65,0.00,,,0.00,,2013-04-15 13:23:00,
2013-04-15 09:34:00,47.0,37.0,30.25,West,277,4.0,7.0,68,0.00,,,0.00,,2013-04-15 13:34:00,
2013-04-15 09:43:00,47.0,37.0,30.25,West,277,4.0,7.0,68,0.00,,,0.00,,2013-04-15 13:43:00,
2013-04-15 09:53:00,47.0,38.0,30.24,WSW,256,6.0,10.0,70,0.00,,,0.00,,2013-04-15 13:53:00,
2013-04-15 10:05:00,47.0,38.0,30.24,West,272,6.0,10.0,72,0.00,,,0.00,,2013-04-15 14:05:00,
2013-04-15 10:13:00,47.0,38.0,30.24,West,272,6.0,10.0,72,0.00,,,0.00,,2013-04-15 14:13:00,
2013-04-15 10:23:00,47.0,38.0,30.24,WSW,245,9.0,12.0,72,0.00,,,0.00,,2013-04-15 14:23:00,
2013-04-15 10:34:00,47.0,39.0,30.23,West,278,6.0,12.0,73,0.00,,,0.00,,2013-04-15 14:34:00,
2013-04-15 10:44:00,47.0,39.0,30.23,West,278,6.0,12.0,73,0.00,,,0.00,,2013-04-15 14:44:00,
2013-04-15 10:54:00,48.0,39.0,30.24,WSW,255,9.0,12.0,71,0.00,,,0.00,,2013-04-15 14:54:00,
2013-04-15 11:04:00,49.0,40.0,30.24,WNW,295,4.0,9.0,71,0.00,,,0.00,,2013-04-15 15:04:00,
2013-04-15 11:13:00,49.0,40.0,30.24,WNW,295,4.0,9.0,71,0.00,,,0.00,,2013-04-15 15:13:00,
2013-04-15 11:24:00,50.0,40.0,30.23,West,264,5.0,7.0,68,0.00,,,0.00,,2013-04-15 15:24:00,
2013-04-15 11:36:00,51.0,40.0,30.23,WSW,256,5.0,8.0,67,0.00,,,0.00,,2013-04-15 15:36:00,
2013-04-15 11:44:00,51.0,40.0,30.23,WSW,256,5.0,8.0,67,0.00,,,0.00,,2013-04-15 15:44:00,
2013-04-15 11:54:00,51.0,40.0,30.23,WSW,255,5.0,11.0,67,0.00,,,0.00,,2013-04-15 15:54:00,
2013-04-15 12:05:00,52.0,42.0,30.23,WNW,293,3.0,7.0,68,0.00,,,0.00,,2013-04-15 16:05:00,
2013-04-15 12:14:00,52.0,42.0,30.23,WNW,293,3.0,7.0,68,0.00,,,0.00,,2013-04-15 16:14:00,
2013-04-15 12:25:00,52.0,41.0,30.23,NNW,327,6.0,12.0,66,0.00,,,0.00,,2013-04-15 16:25:00,
2013-04-15 12:34:00,53.0,42.0,30.24,NNW,340,10.0,16.0,66,0.00,,,0.00,,2013-04-15 16:34:00,
2013-04-15 12:44:00,53.0,42.0,30.24,NNW,340,10.0,16.0,66,0.00,,,0.00,,2013-04-15 16:44:00,
2013-04-15 12:53:00,54.0,43.0,30.23,WNW,291,6.0,12.0,66,0.00,,,0.00,,2013-04-15 16:53:00,
2013-04-15 13:04:00,54.0,42.0,30.23,NNW,338,7.0,13.0,64,0.00,,,0.00,,2013-04-15 17:04:00,
2013-04-15 13:15:00,54.0,42.0,30.23,NNW,338,7.0,13.0,64,0.00,,,0.00,,2013-04-15 17:15:00,
2013-04-15 13:22:00,54.0,42.0,30.23,WNW,295,7.0,13.0,64,0.00,,,0.00,,2013-04-15 17:22:00,
2013-04-15 13:33:00,55.0,43.0,30.22,West,262,7.0,13.0,63,0.00,,,0.00,,2013-04-15 17:33:00,
2013-04-15 13:43:00,55.0,43.0,30.22,West,262,7.0,13.0,63,0.00,,,0.00,,2013-04-15 17:43:00,
2013-04-15 13:52:00,56.0,43.0,30.22,WNW,290,7.0,13.0,62,0.00,,,0.00,,2013-04-15 17:52:00,
2013-04-15 14:04:00,56.0,43.0,30.21,West,273,5.0,12.0,62,0.00,,,0.00,,2013-04-15 18:04:00,
2013-04-15 14:13:00,56.0,43.0,30.21,West,273,5.0,12.0,62,0.00,,,0.00,,2013-04-15 18:13:00,
2013-04-15 14:24:00,57.0,43.0,30.21,WNW,289,7.0,14.0,59,0.00,,,0.00,,2013-04-15 18:24:00,
2013-04-15 14:33:00,57.0,43.0,30.21,SW,236,3.0,13.0,60,0.00,,,0.00,,2013-04-15 18:33:00,
2013-04-15 14:42:00,57.0,43.0,30.21,SW,236,3.0,13.0,60,0.00,,,0.00,,2013-04-15 18:42:00,
2013-04-15 14:52:00,59.0,45.0,30.22,NW,318,6.0,13.0,59,0.00,,,0.00,,2013-04-15 18:52:00,
2013-04-15 15:02:00,59.0,43.0,30.21,NW,314,8.0,14.0,56,0.00,,,0.00,,2013-04-15 19:02:00,
2013-04-15 15:12:00,59.0,43.0,30.21,NW,314,8.0,14.0,56,0.00,,,0.00,,2013-04-15 19:12:00,
2013-04-15 15:22:00,60.0,45.0,30.20,WNW,297,6.0,10.0,57,0.00,,,0.00,,2013-04-15 19:22:00,
2013-04-15 15:38:00,61.0,45.0,30.20,WNW,301,8.0,12.0,55,0.00,,,0.00,,2013-04-15 19:38:00,
2013-04-15 15:55:00,61.0,45.0,30.20,WNW,301,8.0,12.0,55,0.00,,,0.00,,2013-04-15 19:55:00,
2013-04-15 15:59:00,60.0,44.0,30.20,NW,326,9.0,12.0,56,0.00,,,0.00,,2013-04-15 19:59:00,
2013-04-15 16:02:00,61.0,45.0,30.20,NW,309,7.0,15.0,55,0.00,,,0.00,,2013-04-15 20:02:00,
2013-04-15 16:12:00,61.0,45.0,30.20,NW,309,7.0,15.0,55,0.00,,,0.00,,2013-04-15 20:12:00,
2013-04-15 16:22:00,60.0,43.0,30.19,NW,314,10.0,15.0,54,0.00,,,0.00,,2013-04-15 20:22:00,
2013-04-15 16:32:00,60.0,45.0,30.19,North,353,9.0,15.0,57,0.00,,,0.00,,2013-04-15 20:32:00,
2013-04-15 16:42:00,60.0,45.0,30.19,North,353,9.0,15.0,57,0.00,,,0.00,,2013-04-15 20:42:00,
2013-04-15 16:52:00,60.0,45.0,30.19,WNW,295,10.0,15.0,58,0.00,,,0.00,,2013-04-15 20:52:00,
2013-04-15 17:02:00,59.0,45.0,30.20,NNW,340,10.0,16.0,60,0.00,,,0.00,,2013-04-15 21:02:00,
2013-04-15 17:12:00,59.0,45.0,30.20,NNW,340,10.0,16.0,60,0.00,,,0.00,,2013-04-15 21:12:00,
2013-04-15 17:22:00,59.0,46.0,30.21,NNE,20,9.0,16.0,61,0.00,,,0.00,,2013-04-15 21:22:00,
2013-04-15 17:33:00,58.0,45.0,30.20,WNW,285,9.0,13.0,62,0.00,,,0.00,,2013-04-15 21:33:00,
2013-04-15 17:43:00,58.0,45.0,30.20,WNW,285,9.0,13.0,62,0.00,,,0.00,,2013-04-15 21:43:00,
2013-04-15 17:53:00,57.0,45.0,30.20,WNW,301,7.0,12.0,64,0.00,,,0.00,,2013-04-15 21:53:00,
2013-04-15 18:02:00,57.0,45.0,30.20,NNE,27,6.0,12.0,65,0.00,,,0.00,,2013-04-15 22:02:00,
2013-04-15 18:13:00,57.0,45.0,30.20,NNE,27,6.0,12.0,65,0.00,,,0.00,,2013-04-15 22:13:00,
2013-04-15 18:23:00,57.0,46.0,30.21,NNE,20,9.0,13.0,66,0.00,,,0.00,,2013-04-15 22:23:00,
2013-04-15 18:33:00,57.0,46.0,30.22,North,4,5.0,13.0,67,0.00,,,0.00,,2013-04-15 22:33:00,
2013-04-15 18:42:00,57.0,46.0,30.22,North,4,5.0,13.0,67,0.00,,,0.00,,2013-04-15 22:42:00,
2013-04-15 18:52:00,57.0,47.0,30.22,NNW,334,7.0,14.0,68,0.00,,,0.00,,2013-04-15 22:52:00,
2013-04-15 19:02:00,56.0,46.0,30.22,NW,309,5.0,13.0,69,0.00,,,0.00,,2013-04-15 23:02:00,
2013-04-15 19:12:00,56.0,46.0,30.22,NW,309,5.0,13.0,69,0.00,,,0.00,,2013-04-15 23:12:00,
2013-04-15 19:22:00,56.0,46.0,30.23,NNW,329,6.0,11.0,70,0.00,,,0.00,,2013-04-15 23:22:00,
2013-04-15 19:32:00,55.0,45.0,30.22,NW,314,7.0,12.0,70,0.00,,,0.00,,2013-04-15 23:32:00,
2013-04-15 19:42:00,55.0,45.0,30.22,NW,314,7.0,12.0,70,0.00,,,0.00,,2013-04-15 23:42:00,
2013-04-15 19:52:00,55.0,46.0,30.23,NNW,338,5.0,11.0,72,0.00,,,0.00,,2013-04-15 23:52:00,
2013-04-15 20:03:00,54.0,46.0,30.24,NNW,345,6.0,10.0,74,0.00,,,0.00,,2013-04-16 00:03:00,
2013-04-15 20:12:00,54.0,46.0,30.24,NNW,345,6.0,10.0,74,0.00,,,0.00,,2013-04-16 00:12:00,
2013-04-15 20:22:00,54.0,46.0,30.24,North,356,5.0,7.0,75,0.00,,,0.00,,2013-04-16 00:22:00,
2013-04-15 20:32:00,54.0,46.0,30.24,NNW,347,7.0,12.0,75,0.00,,,0.00,,2013-04-16 00:32:00,
2013-04-15 20:42:00,54.0,46.0,30.24,NNW,347,7.0,12.0,75,0.00,,,0.00,,2013-04-16 00:42:00,
2013-04-15 20:52:00,54.0,46.0,30.24,NW,323,6.0,12.0,75,0.00,,,0.00,,2013-04-16 00:52:00,
2013-04-15 21:02:00,54.0,46.0,30.24,NW,323,6.0,12.0,75,0.00,,,0.00,,2013-04-16 01:02:00,
2013-04-15 21:12:00,54.0,46.0,30.24,NW,323,6.0,12.0,75,0.00,,,0.00,,2013-04-16 01:12:00,
2013-04-15 21:22:00,53.0,46.0,30.24,NW,316,5.0,12.0,76,0.00,,,0.00,,2013-04-16 01:22:00,
2013-04-15 21:32:00,53.0,46.0,30.25,NNW,341,4.0,8.0,77,0.00,,,0.00,,2013-04-16 01:32:00,
2013-04-15 21:42:00,53.0,46.0,30.25,NNW,341,4.0,8.0,77,0.00,,,0.00,,2013-04-16 01:42:00,
2013-04-15 21:52:00,53.0,46.0,30.26,NNW,329,4.0,8.0,77,0.00,,,0.00,,2013-04-16 01:52:00,
2013-04-15 22:02:00,53.0,46.0,30.27,NNW,333,1.0,7.0,77,0.00,,,0.00,,2013-04-16 02:02:00,
2013-04-15 22:12:00,53.0,46.0,30.27,NNW,333,1.0,7.0,77,0.00,,,0.00,,2013-04-16 02:12:00,
2013-04-15 22:22:00,53.0,46.0,30.26,NW,305,3.0,6.0,77,0.00,,,0.00,,2013-04-16 02:22:00,
2013-04-15 22:32:00,53.0,46.0,30.27,NW,316,3.0,6.0,77,0.00,,,0.00,,2013-04-16 02:32:00,
2013-04-15 22:42:00,53.0,46.0,30.27,NW,316,3.0,6.0,77,0.00,,,0.00,,2013-04-16 02:42:00,
2013-04-15 22:52:00,53.0,46.0,30.27,NW,319,3.0,7.0,76,0.00,,,0.00,,2013-04-16 02:52:00,
2013-04-15 23:02:00,53.0,46.0,30.28,NW,322,7.0,11.0,76,0.00,,,0.00,,2013-04-16 03:02:00,
2013-04-15 23:12:00,53.0,46.0,30.28,NW,322,7.0,11.0,76,0.00,,,0.00,,2013-04-16 03:12:00,
2013-04-15 23:22:00,52.0,45.0,30.27,NW,307,8.0,12.0,76,0.00,,,0.00,,2013-04-16 03:22:00,
2013-04-15 23:33:00,52.0,45.0,30.27,WNW,290,5.0,12.0,76,0.00,,,0.00,,2013-04-16 03:33:00,
2013-04-15 23:43:00,52.0,45.0,30.27,WNW,290,5.0,12.0,76,0.00,,,0.00,,2013-04-16 03:43:00,
2013-04-15 23:52:00,52.0,45.0,30.27,WNW,283,3.0,6.0,77,0.00,,,0.00,,2013-04-16 03:52:00,